This demonstration page uses our WeatherBlox Daily Observations layout. Learn more.

Left ArrowRight Arrow

39.29038, -76.61219

Hourly Observations for March 23, 2015

Temp ( °F °C ) Dew Point ( °F °C ) Humidity (%) Winds ( mph kmh ) Pressure ( in mb ) Visibility ( mi km ) Precip ( " mm )
12:54 am 00:54 undefined 42 5.6 10 -12.2 27 27 undefined N/A 30.16 1021 N/A 0.00 0.00
1:54 am 01:54 undefined 40 4.4 9 -12.8 28 28 undefined N/A 30.16 1021 N/A 0.00 0.00
2:54 am 02:54 undefined 39 3.9 8 -13.3 28 28 undefined N/A 30.18 1022 N/A 0.00 0.00
3:54 am 03:54 undefined 37 2.8 8 -13.3 30 30 undefined N/A 30.19 1022 N/A 0.00 0.00
4:54 am 04:54 undefined 35 1.7 7 -13.9 31 31 undefined N/A 30.20 1023 N/A 0.00 0.00
5:54 am 05:54 undefined 33 0.6 10 -12.2 38 38 undefined N/A 30.21 1023 N/A 0.00 0.00
6:54 am 06:54 undefined 32 0 10 -12.2 40 40 undefined N/A 30.24 1024 N/A 0.00 0.00
7:54 am 07:54 undefined 31 -0.6 11 -11.7 43 43 undefined N/A 30.28 1025 N/A 0.00 0.00
8:54 am 08:54 undefined 31 -0.6 10 -12.2 42 42 undefined N/A 30.31 1026 N/A 0.00 0.00
9:54 am 09:54 undefined 33 0.6 10 -12.2 38 38 undefined N/A 30.35 1028 N/A 0.00 0.00
10:54 am 10:54 undefined 36 2.2 11 -11.7 35 35 undefined N/A 30.33 1027 N/A 0.00 0.00
11:54 am 11:54 undefined 37 2.8 9 -12.8 31 31 undefined N/A 30.31 1026 N/A 0.00 0.00
12:54 pm 12:54 undefined 40 4.4 11 -11.7 30 30 undefined N/A 30.29 1026 N/A 0.00 0.00
1:54 pm 13:54 undefined 41 5 8 -13.3 25 25 undefined N/A 30.26 1025 N/A 0.00 0.00
2:54 pm 14:54 undefined 45 7.2 11 -11.7 25 25 undefined N/A 30.23 1024 N/A 0.00 0.00
3:54 pm 15:54 undefined 45 7.2 9 -12.8 23 23 undefined N/A 30.20 1023 N/A 0.00 0.00
4:54 pm 16:54 undefined 45 7.2 9 -12.8 23 23 undefined N/A 30.18 1022 N/A 0.00 0.00
5:54 pm 17:54 undefined 43 6.1 9 -12.8 25 25 undefined N/A 30.15 1021 N/A 0.00 0.00
6:54 pm 18:54 undefined 43 6.1 10 -12.2 26 26 undefined N/A 30.19 1022 N/A 0.00 0.00
7:54 pm 19:54 undefined 43 6.1 10 -12.2 26 26 undefined N/A 30.21 1023 N/A 0.00 0.00
8:54 pm 20:54 undefined 42 5.6 15 -9.4 33 33 undefined N/A 30.23 1024 N/A 0.00 0.00
9:54 pm 21:54 undefined 41 5 12 -11.1 30 30 undefined N/A 30.24 1024 N/A 0.00 0.00
10:54 pm 22:54 undefined 41 5 11 -11.7 29 29 undefined N/A 30.25 1025 N/A 0.00 0.00
11:54 pm 23:54 undefined 40 4.4 13 -10.6 33 33 undefined N/A 30.24 1024 N/A 0.00 0.00

Powered by AerisWeather